Location: Rio Tanui
(39.9167°N, 8.5167°E)
Time: 15:52:03
(UTC+00:00)

Meteor 2-2 Rocket - Pass Details

Date: 22 June 2024
Orbit: 851 x 928 km, 81.3° (Epoch: 18 July)

Event Time Altitude Azimuth Distance (km) Brightness Sun altitude
Rises 03:10:21 0° 342° (NNW) 3,428 7.7 -8.2°
Reaches altitude 10° 03:12:55 10° 335° (NNW) 2,486 6.8 -7.8°
Maximum altitude 03:18:04 38° 269° (W) 1,273 4.8 -7.1°
Drops below altitude 10° 03:23:13 10° 202° (SSW) 2,484 6.1 -6.3°
Sets 03:25:47 0° 194° (SSW) 3,424 6.9 -5.9°
